Home > Weather > Giessen > Past weeks

Flag for Germany Weather for the Past 2 Weeks in Giessen, Hesse, Germany

Now
36 °F

Light rain. Broken clouds.


Feels Like: 29 °F
Forecast: 31 / 39 °F
Wind: 8 mph from West

Location: Hessen

Current Time: Feb 14, 2016 at 9:30:55 AM

Latest Report: Feb 14, 2016 at 8:50 AM


Visibility: 2 mi

Pressure: 29.06 "Hg

Humidity: 100%

Dew point: 36 °F

Location of GiessenLocation

Historic Weather in Giessen — Graph

°F

Giessen Temperature Yesterday

Maximum temperature yesterday: 30 °F (at 10:20 AM)
Minimum temperature yesterday: 25 °F (at 7:50 AM)
Average temperature yesterday: 29 °F

High & Low Weather Summary for the Past Weeks

 TemperatureHumidityPressure
High50 °F (Feb 6, 1:50 PM)100% (Jan 30, 10:20 AM)30.24 "Hg (Jan 30, 10:20 AM)
Low25 °F (Feb 13, 7:50 AM)76% (Feb 6, 2:50 PM)28.91 "Hg (Feb 9, 5:20 PM)
Average37 °F96%29.69 "Hg
* Reported Jan 30 8:20 AM — Feb 14 8:20 AM, Giessen, Weather by CustomWeather, © 2016

Note: Actual official high and low records may vary slightly from our data, if they occured in-between our weather recording intervals... More about our weather records

Advertising

Giessen Weather History for the Previous 24 Hours

 ConditionsComfort  
Time TempWeatherWind HumidityBarometerVisibility
8:20 AM
Sun, Feb 14
34 °FLight rain. Broken clouds.6 mph100%29.03 "HgN/A
7:50 AM34 °FLight rain. Broken clouds.6 mph100%29.03 "HgN/A
5:50 PM
Sat, Feb 13
30 °FSnow. Ice fog.17 mph100%29.09 "Hg1 mi
5:20 PM30 °FLight snow. More clouds than sun.15 mph100%29.09 "Hg1 mi
4:50 PM30 °FLight snow. More clouds than sun.15 mph100%29.09 "Hg1 mi
4:20 PM30 °FLight snow. More clouds than sun.16 mph100%29.12 "Hg1 mi
3:50 PM30 °FLight snow. Ice fog.18 mph100%29.12 "Hg1 mi
3:20 PM30 °FLight snow. More clouds than sun.17 mph100%29.12 "Hg2 mi
2:50 PM30 °FLight snow. More clouds than sun.15 mph100%29.15 "Hg1 mi
2:20 PM30 °FLight snow. More clouds than sun.16 mph100%29.15 "Hg2 mi
1:50 PM30 °FIce fog.15 mph100%29.18 "Hg2 mi
1:20 PM30 °FLow clouds.14 mph100%29.18 "Hg4 mi
12:50 PM30 °FPartly sunny.14 mph93%29.21 "Hg5 mi
12:20 PM30 °FPartly sunny.13 mph100%29.21 "HgN/A
11:50 AM30 °FPartly sunny.13 mph100%29.21 "Hg5 mi
11:20 AM30 °FPartly sunny.15 mph100%29.24 "Hg5 mi
10:50 AM30 °FPartly sunny.12 mph100%29.24 "Hg5 mi
10:20 AM30 °FPartly sunny.9 mph93%29.27 "Hg5 mi
9:50 AM28 °FBroken clouds.9 mph100%29.27 "Hg6 mi
9:20 AM28 °FPartly sunny.9 mph100%29.27 "HgN/A
Weather by CustomWeather, © 2016

See weather overviewHow to use our weather pages